Probability
0 0 0 0 0 0 0 0 0 0 0 0 0 0 0 0 0 0 0 0 1 5 14 24 28 26 20 13 8 5 4 3 3 2 1 0 0 0 0 0 0 0 0 0 0 0 0 0 0
0 0 0 0 0 0 0 0 0 0 0 0 0 0 0 0 0 0 0 0 1 7 16 25 29 29 23 15 7 4 3 3 3 2 0 0 0 0 0 0 0 0 0 0 0 0 0 0 0
0 0 0 0 0 0 0 0 0 0 0 0 0 0 0 0 0 0 0 0 3 9 17 24 29 30 24 15 7 3 2 3 3 2 1 1 0 0 0 0 0 0 0 0 0 0 0 0 0
0 0 0 0 0 0 0 0 0 0 0 0 0 0 0 0 0 0 0 1 4 11 17 22 27 28 23 14 7 3 2 3 3 3 3 2 1 0 0 0 0 0 0 0 0 0 0 0 0
1 0 0 0 0 0 0 0 0 0 0 0 0 0 0 0 0 0 0 1 5 11 17 22 26 27 21 14 9 5 3 3 3 3 3 2 1 0 0 0 0 0 0 0 0 0 0 0 0
1 1 0 0 0 0 0 0 0 0 0 0 0 0 0 0 0 0 0 2 5 11 17 22 25 24 19 14 10 6 4 3 3 3 3 2 1 0 0 0 0 0 0 0 0 0 0 0 0
1 1 1 0 0 0 0 0 0 0 0 0 0 0 0 0 0 0 0 2 6 11 16 20 20 18 15 13 11 7 4 3 3 3 3 2 1 0 0 0 0 0 0 0 0 0 0 0 0
1 2 1 0 0 0 0 0 0 0 0 0 0 0 0 0 0 0 1 3 5 8 13 16 16 14 11 11 10 6 4 3 3 3 3 2 1 0 0 0 0 0 0 0 0 0 0 0 0
1 1 1 0 0 0 0 0 0 0 0 0 0 0 0 0 0 1 2 3 4 5 8 11 13 12 10 9 7 5 3 3 3 3 2 1 0 0 0 0 0 0 0 0 0 0 0 0 0
0 0 0 0 0 0 0 0 0 0 0 0 0 0 0 0 1 2 3 3 2 3 5 7 10 11 10 7 5 3 3 3 2 1 1 0 0 0 0 0 0 0 0 0 0 0 0 0 0
0 0 0 0 0 0 0 0 0 0 0 0 0 0 0 1 2 3 3 3 3 3 5 6 8 9 8 6 4 3 2 1 1 0 0 0 0 0 0 0 0 0 0 0 0 0 0 0 0
0 0 0 0 0 0 0 0 0 0 0 0 0 0 0 1 2 3 4 4 4 5 6 7 7 7 6 5 3 1 1 0 0 0 0 0 0 0 0 0 0 0 0 0 0 0 0 0 0
0 0 0 0 0 0 0 0 0 0 0 0 0 0 0 0 2 4 5 4 3 5 6 8 8 6 4 3 1 0 0 0 0 0 0 0 0 0 0 0 0 0 0 0 0 0 0 0 0
0 0 0 0 0 0 0 0 0 0 0 0 0 0 0 0 2 5 5 3 2 2 5 8 8 6 4 2 1 0 0 0 0 0 0 0 0 0 0 0 0 0 0 0 0 0 0 0 0
0 0 0 0 0 0 0 0 0 0 0 0 0 0 0 0 2 5 5 3 1 1 4 8 8 6 4 2 1 0 0 0 0 0 0 0 0 0 0 0 0 0 0 0 0 0 0 0 0
0 0 0 0 0 0 0 0 0 0 0 0 0 0 0 0 1 4 5 3 2 2 4 6 7 5 4 2 1 0 0 0 0 0 0 0 0 0 0 0 0 0 0 0 0 0 0 0 0
0 0 0 0 0 0 0 0 0 0 0 0 0 0 0 0 1 3 5 4 3 3 4 6 6 5 4 2 1 0 0 0 0 0 0 0 0 0 0 0 0 0 0 0 0 0 0 0 0
0 0 0 0 0 0 0 0 0 0 0 0 0 0 0 0 1 2 4 4 4 3 4 5 5 4 3 2 0 0 0 0 0 0 0 0 0 0 0 0 0 0 0 0 0 0 0 0 0
0 0 0 0 0 0 0 0 0 0 0 0 0 0 0 0 0 1 3 4 5 4 5 5 4 2 2 2 0 0 0 0 0 0 0 0 0 0 0 0 0 0 0 0 0 0 0 0 0
0 0 0 0 0 0 0 0 0 0 0 0 0 0 0 0 0 1 2 3 5 6 5 4 3 1 1 1 0 0 0 0 0 0 0 0 0 0 0 0 0 0 0 0 0 0 0 0 0
0 0 0 0 0 0 0 0 0 0 0 0 0 0 0 0 0 0 1 1 3 6 6 4 2 1 0 0 0 0 0 0 0 0 0 0 0 0 0 0 0 0 0 0 0 0 0 0 0
0 0 0 0 0 0 0 0 0 0 0 0 0 0 0 0 0 0 0 0 2 5 7 5 3 1 0 0 0 0 0 0 0 0 0 0 0 0 0 0 0 0 0 0 0 0 0 0 0
0 0 0 0 0 0 0 0 0 0 0 0 0 0 0 0 0 0 0 0 1 3 6 7 5 2 0 0 0 0 0 0 0 0 0 0 0 0 0 0 0 0 0 0 0 0 0 0 0
0 0 0 0 0 0 0 0 0 0 0 0 0 0 0 0 0 0 0 0 0 2 4 6 5 3 1 0 0 0 0 0 0 0 0 0 0 0 0 0 0 0 0 0 0 0 0 0 0
0 0 0 0 0 0 0 0 0 0 0 0 0 0 0 0 0 0 0 0 0 0 2 4 5 4 2 1 0 0 0 0 0 0 0 0 0 0 0 0 0 0 0 0 0 0 0 0 0
0 0 0 0 0 0 0 0 0 0 0 0 0 0 0 0 0 0 0 0 0 0 1 2 3 3 2 1 0 0 0 0 0 0 0 0 0 0 0 0 0 0 0 0 0 0 0 0 0
0 0 0 0 0 0 0 0 0 0 0 0 0 0 0 0 0 0 0 0 0 0 0 1 1 1 3 3 1 0 0 0 0 0 0 0 0 0 0 0 0 0 0 0 0 0 0 0 0
0 0 0 0 0 0 0 0 0 0 0 0 0 0 0 0 0 0 0 0 0 0 0 0 0 1 3 3 2 1 0 0 0 0 0 0 0 0 0 0 0 0 0 0 0 0 0 0 0
0 0 0 0 0 0 0 0 0 0 0 0 0 0 0 0 0 0 0 0 0 0 0 0 0 1 2 2 1 1 1 1 0 0 0 0 0 0 0 0 0 0 0 0 0 0 0 0 0
0 0 0 0 0 0 0 0 0 0 0 0 0 0 0 0 0 0 0 0 0 0 0 0 0 0 1 0 0 1 2 1 0 0 0 0 0 0 0 0 0 0 0 0 0 0 0 0 0
Wind_Speed
1 4 3 3 3 2 8 8 5 4 5 4 4 6 7 9 8 6 1 9 11 14 15 19 23 22 22 21 20 19 19 18 17 17 16 16 16 16 15 15 15 15 15 15 15 15 15 15 15
1 3 4 3 4 7 9 7 9 10 5 1 1 2 3 6 4 2 3 7 13 15 14 15 23 22 22 21 20 19 19 18 17 17 16 16 16 16 15 15 15 15 14 14 14 14 14 14 14
1 2 4 3 7 11 9 6 10 8 6 3 2 2 4 5 3 5 5 9 12 13 12 16 23 23 22 22 21 20 19 18 17 17 16 16 16 16 15 15 15 15 14 14 13 13 14 14 13
2 2 2 6 16 12 8 3 3 2 3 4 3 4 4 2 3 4 7 12 14 12 11 16 23 23 22 22 21 20 19 18 18 17 17 16 16 16 15 15 14 14 14 13 13 13 13 13 13
1 3 6 11 18 10 6 5 3 2 2 2 3 4 4 3 1 6 11 13 15 12 11 15 23 23 22 22 21 20 19 18 18 17 17 16 16 16 15 14 14 14 14 13 13 12 12 12 12
2 3 8 16 17 10 7 6 4 5 5 3 3 3 5 2 4 8 11 11 11 12 11 13 22 22 22 21 21 20 19 18 18 17 17 16 16 16 15 14 14 13 13 12 12 11 11 11 11
4 6 11 12 12 11 9 6 7 7 9 7 5 3 4 2 4 9 9 9 9 10 10 10 13 16 20 20 19 19 19 18 17 17 16 16 16 15 15 14 14 13 12 11 11 10 10 10 10
4 4 10 10 11 13 6 5 6 9 10 5 7 7 7 5 8 10 10 9 9 9 9 9 10 11 11 13 17 17 17 17 17 16 15 14 14 14 14 13 13 12 11 11 10 10 9 9 9
3 8 14 13 10 7 4 5 5 4 4 4 5 5 3 10 14 14 11 11 12 11 9 9 10 10 9 9 13 14 15 15 14 13 14 12 7 7 8 9 11 12 11 10 9 9 9 8 7
6 12 17 8 5 4 4 6 5 3 5 4 3 0 6 14 16 18 18 19 19 17 14 10 11 11 10 9 8 7 7 8 7 7 8 6 5 5 6 9 10 10 9 9 9 9 8 7 3
7 11 8 8 6 5 5 6 4 5 8 8 6 6 11 15 16 17 19 19 19 17 15 13 12 11 10 7 7 5 4 5 6 8 8 6 5 4 4 3 4 4 5 3 5 5 4 3 2
7 10 8 7 6 7 7 5 6 9 11 6 7 9 14 17 18 19 19 18 15 15 16 13 12 11 10 8 7 6 5 5 5 7 8 6 4 4 3 3 3 3 2 3 3 3 3 3 3
11 9 9 8 8 9 8 9 9 11 10 6 5 10 15 17 17 16 14 14 14 16 16 15 14 13 11 9 7 7 6 6 6 6 7 7 5 5 4 3 3 3 3 3 3 2 3 2 2
7 7 9 9 9 8 10 12 10 12 6 5 8 13 16 17 17 13 14 16 17 18 17 15 15 14 12 10 8 7 7 6 6 6 7 8 6 5 5 4 3 3 3 3 3 3 2 2 1
5 7 9 9 9 7 6 13 13 11 5 7 9 11 14 14 14 16 17 18 19 19 18 17 16 14 13 12 10 8 7 7 7 7 7 8 7 7 6 5 4 3 3 3 3 2 2 2 1
4 6 8 7 7 6 7 16 9 6 6 8 9 9 11 13 14 13 13 13 15 16 17 18 15 15 14 12 10 8 8 8 7 6 7 8 8 8 6 5 4 4 4 3 3 2 2 1 1
4 8 9 7 6 5 8 11 6 5 6 9 9 9 10 11 12 12 12 12 14 16 17 18 17 17 15 12 9 8 8 8 7 7 7 8 9 9 7 5 4 5 4 3 3 2 2 2 1
6 6 7 8 4 5 9 11 7 5 7 9 9 9 10 12 15 13 13 13 13 14 15 16 16 15 14 10 8 7 7 7 7 7 8 9 8 9 7 5 6 6 4 3 3 3 2 2 2
6 7 10 9 6 7 11 12 10 8 8 9 9 9 10 13 13 9 11 11 12 14 16 17 17 16 14 12 12 11 11 9 8 8 9 10 9 10 9 6 6 6 5 6 5 3 3 2 2
7 8 9 8 6 6 9 13 11 10 11 11 11 11 12 12 9 9 10 12 14 17 18 18 18 17 17 14 12 9 8 6 6 6 8 10 11 11 9 9 7 7 5 6 6 4 3 2 2
8 8 7 7 9 6 6 10 10 9 9 9 9 10 12 14 12 11 12 14 15 17 19 19 20 19 18 14 9 7 5 4 6 8 9 11 12 12 10 11 9 8 7 7 7 6 6 4 2
8 5 7 7 5 5 2 7 7 7 8 10 10 9 11 12 12 11 12 13 15 18 17 19 20 19 18 16 14 15 12 12 12 9 9 9 11 11 11 11 10 9 8 8 8 7 5 5 4
5 3 5 7 5 6 4 6 9 4 8 10 10 10 10 10 12 12 13 14 15 16 16 17 18 19 18 18 18 17 14 10 7 6 9 10 10 11 11 11 10 10 8 9 8 8 6 5 5
2 3 4 3 2 7 7 7 9 5 8 8 9 9 9 8 9 10 11 11 12 12 13 14 17 19 19 19 19 19 17 13 11 11 11 10 8 9 12 11 11 10 9 9 9 9 9 7 6
2 2 1 1 3 7 4 7 10 6 6 8 8 7 7 6 6 7 8 9 10 11 13 14 17 18 19 20 20 20 19 17 16 14 13 11 9 9 13 12 11 10 10 9 9 9 8 8 7
4 5 4 3 4 3 3 8 7 5 5 5 6 6 5 5 5 7 8 9 10 12 13 15 17 18 19 20 21 19 18 14 12 13 11 12 11 11 11 13 11 11 10 10 9 7 8 7 8
2 4 3 2 3 3 6 6 7 4 4 4 5 5 5 5 5 5 6 7 8 10 12 15 17 17 18 19 19 18 18 16 14 13 12 10 9 9 11 12 12 11 11 11 10 8 9 8 8
2 1 1 2 2 4 5 5 4 3 5 5 5 6 7 5 5 4 4 6 7 8 10 11 15 17 17 18 17 15 17 17 15 12 14 13 12 10 12 12 12 11 11 11 10 8 8 8 8
1 1 1 2 2 3 4 6 2 2 4 6 6 6 6 6 6 5 5 4 5 6 7 9 10 12 13 15 16 15 15 16 15 13 14 13 11 12 13 13 13 12 12 11 10 10 9 10 8
4 4 3 2 4 3 4 8 1 2 4 5 7 8 6 6 6 4 4 3 2 3 5 7 8 10 11 12 13 15 14 14 14 14 14 13 13 12 13 12 12 12 12 12 12 11 10 10 10
Wind_Direction
328 95 88 71 76 218 234 229 214 220 221 216 186 179 189 187 177 214 283 149 144 153 163 165 161 159 156 152 149 146 143 141 139 137 134 132 130 128 125 122 119 116 113 112 109 107 104 100 97
113 112 77 90 167 221 241 221 218 219 211 154 191 203 212 238 228 195 161 162 149 154 160 161 160 159 156 153 151 149 146 144 142 140 138 136 132 128 126 124 121 118 114 111 110 110 107 102 99
154 131 134 157 206 215 228 216 223 233 233 244 252 230 215 233 215 197 190 160 149 155 158 162 159 159 157 155 153 151 149 147 145 143 141 139 135 131 128 124 122 119 116 113 112 110 107 105 102
124 104 139 208 230 224 217 209 197 225 250 217 207 257 254 262 209 193 158 156 151 154 156 162 160 160 158 157 155 152 151 150 149 146 144 140 138 134 130 126 124 121 120 119 116 113 109 107 103
101 157 209 232 238 236 230 238 224 224 237 194 175 252 268 315 146 145 150 158 156 155 156 161 161 161 159 157 156 154 153 152 151 148 147 146 142 138 134 131 129 126 125 122 119 117 113 111 107
178 182 215 232 239 241 235 220 235 250 247 236 195 225 256 309 145 151 153 157 155 154 155 161 163 161 160 159 157 157 157 155 153 152 150 148 144 140 139 137 133 130 129 126 123 122 118 114 110
194 206 229 237 246 246 235 196 213 231 245 232 189 206 267 236 169 148 145 145 149 153 155 161 164 162 161 159 158 158 158 157 155 154 152 148 144 143 143 139 136 135 133 130 128 125 122 117 111
197 216 235 233 237 247 222 200 214 212 240 223 175 192 228 199 149 137 138 144 151 157 160 160 159 159 159 159 159 158 157 158 156 153 149 146 145 146 144 141 141 140 138 136 133 130 126 118 113
185 226 232 224 225 243 199 218 239 227 224 223 212 214 221 143 145 145 151 160 166 170 168 162 159 157 154 155 161 157 158 158 155 151 146 139 132 133 137 141 145 145 144 143 139 134 125 111 106
198 229 236 230 219 233 230 226 229 234 240 241 253 310 133 148 159 165 171 175 178 179 176 169 163 159 156 159 157 154 153 152 145 140 137 124 121 125 128 143 143 144 144 144 141 132 111 89 73
215 236 246 250 247 259 259 258 240 217 241 223 215 184 160 166 173 179 183 184 183 179 176 173 167 162 160 157 153 149 145 143 138 137 133 127 122 122 116 121 134 128 120 102 107 90 82 87 86
239 251 254 255 260 264 260 261 253 231 241 235 215 182 175 180 185 189 189 188 183 181 180 175 170 166 163 157 155 151 149 148 147 146 142 137 133 130 129 120 116 107 103 104 92 94 94 92 90
240 255 257 261 263 258 264 259 261 258 260 258 218 187 189 193 195 195 192 187 184 187 183 179 174 171 166 159 160 158 157 155 151 150 151 148 147 147 141 135 129 127 122 122 117 111 110 103 99
247 260 269 267 264 262 255 261 253 258 255 234 201 197 200 200 196 192 189 189 190 191 188 182 180 175 169 167 166 164 161 155 153 157 159 156 153 153 151 146 145 146 144 139 136 137 130 124 119
263 265 273 253 244 240 240 259 241 246 237 231 215 207 208 209 198 197 196 194 192 191 188 186 184 178 175 171 169 166 165 161 164 166 164 164 159 159 158 157 161 164 151 139 125 120 109 117 118
241 240 253 244 222 229 212 251 248 235 221 237 226 213 213 214 208 206 203 201 193 189 189 188 186 183 181 177 172 169 169 169 171 169 170 171 168 164 161 165 173 165 150 144 140 135 121 125 137
220 233 241 265 223 215 218 255 264 240 224 236 235 219 216 219 215 209 205 204 196 191 189 188 188 186 184 178 174 171 171 175 174 173 176 178 174 171 169 173 173 161 155 155 157 143 146 158 173
230 243 246 252 256 244 246 258 270 255 242 240 239 230 220 221 221 208 202 202 198 192 188 189 190 186 181 177 170 170 175 181 179 181 183 179 179 176 173 173 172 164 161 164 161 153 145 153 162
267 273 271 273 281 262 255 261 262 254 249 248 244 238 227 227 227 208 200 197 195 192 189 189 191 187 182 183 184 185 189 188 188 189 186 184 182 180 180 179 174 174 178 179 169 152 151 154 139
256 266 275 287 284 280 270 267 261 245 241 237 234 234 233 233 227 207 198 195 198 196 194 192 193 190 189 191 190 188 182 184 186 184 187 188 187 185 187 183 182 181 177 174 174 161 150 157 160
257 249 258 275 306 285 277 274 252 249 239 238 236 232 230 228 223 212 200 200 200 200 197 195 195 193 192 189 176 165 159 159 179 190 194 195 191 190 190 188 183 182 181 184 185 178 167 170 187
267 251 262 268 282 280 259 279 262 237 239 239 238 235 231 229 225 217 207 203 203 204 200 197 195 194 192 187 184 182 188 193 197 192 192 189 192 192 191 188 186 185 185 184 186 184 177 161 175
245 278 275 265 258 274 249 261 275 228 236 239 237 235 233 229 222 218 213 208 208 205 200 198 194 194 192 190 192 192 198 199 185 177 182 187 191 193 192 189 188 188 189 188 184 182 184 178 174
242 328 305 274 223 251 226 221 269 222 225 237 238 238 234 229 226 225 220 211 211 205 200 197 194 196 193 193 194 197 199 192 181 185 189 190 190 193 194 191 192 192 191 190 189 188 188 191 182
154 116 327 277 213 243 210 214 250 241 236 234 238 245 245 234 227 229 223 213 211 206 200 197 196 198 195 196 198 201 201 196 196 193 193 189 189 195 197 193 194 193 193 191 187 188 192 191 190
214 175 193 229 231 268 228 232 252 255 254 256 255 262 270 260 242 233 225 215 212 210 204 199 198 200 196 198 202 202 201 199 201 196 193 194 197 198 191 192 194 193 190 189 187 190 193 192 198
211 210 217 262 281 263 246 269 293 309 314 303 296 294 280 272 266 255 241 221 215 213 209 204 201 201 199 199 201 202 200 200 200 195 193 196 196 189 185 188 191 192 190 190 186 194 196 192 200
214 176 148 208 247 257 266 258 256 304 307 318 327 318 307 309 308 294 267 236 222 218 213 208 205 203 200 198 200 201 201 201 200 192 194 196 193 184 182 186 190 190 190 189 188 192 192 193 200
175 170 196 220 232 230 268 265 236 279 321 314 311 317 317 318 311 307 297 269 230 219 212 208 205 203 200 198 198 199 201 199 196 196 196 195 189 184 185 187 188 190 191 189 191 196 190 196 200
197 190 168 194 261 233 244 269 266 313 337 331 326 329 326 318 310 306 303 300 272 230 220 210 203 203 203 200 199 199 198 196 196 198 196 191 188 187 187 184 187 190 191 190 193 196 194 197 200